Terminal Aerodrome Forecast
Issued by NWS

Home | Current Version | Previous Version | Graphics & Text | Print | Product List | Glossary On
Versions: 1 2 3 4 5 6 7 8 9 10 11 12 13 14 15 16 17 18 19 20 21 22 23 24 25 26 27 28 29 30 31 32 33 34 35
000
FTUS43 KLOT 202100 AAC
TAFDPA
TAF AMD
KDPA 202111Z 2021/2118 24013KT P6SM FEW025 BKN050 OVC080
     FM210300 27010KT P6SM SCT040 BKN070
     FM210800 29012G17KT P6SM FEW030
     FM211700 33015G24KT P6SM VCSH BKN030=

USA.gov is the U.S. government's official web portal to all federal, state and local government web resources and services.